Location: Catstown
(52.4386°N, 7.2633°W)
Time: 22:41:26
(UTC+00:00)

Landsat 7 - Pass Details

Date: 18 September 2020
Orbit: 701 x 703 km, 98.1° (Epoch: 21 October)

Event Time Altitude Azimuth Distance (km) Brightness Sun altitude
Exits shadow 21:04:38 57° 108° (ESE) 831 3.8 -22.1°
Maximum altitude 21:05:14 63° 71° (ENE) 789 3.8 -22.1°
Drops below altitude 10° 21:09:58 10° 351° (N) 2,184 6.9 -22.7°
Sets 21:12:15 0° 348° (NNW) 3,107 7.9 -23.0°
